Weather History for Sungshan, Taiwan

Change the Weather History Date:

Wednesday, February 27, 2013

  Actual Average Record
Temperature  
Mean Temperature 68 °F -  
Max Temperature 71 °F 70 °F 80 °F (2001)
Min Temperature 64 °F 58 °F 33 °F (1998)
Cooling Degree Days 2    
Growing Degree Days 18 (Base 50)    
Moisture  
Dew Point 63 °F    
Average Humidity 90    
Maximum Humidity 94    
Minimum Humidity 73    
Precipitation  
Precipitation 0.00 in - - ()
Sea Level Pressure  
Sea Level Pressure 29.98 in    
Wind  
Wind Speed 5 mph ()    
Max Wind Speed 13 mph    
Max Gust Speed -    
Visibility 3.8 miles    
Events Rain    
Averages and records for this station are not official NWS values.
T = Trace of Precipitation, MM = Missing Value Source: Averaged Metar Reports

Daily Weather History Graph

Daily Weather History Graph

Search for Another Location

Airport:

Trip Planner

Search our weather history database for the weather conditions in past years. The results will help you decide how hot, cold, wet, or windy it might be!

Date:

Astronomy

Feb. 27, 2013 Rise Set
Actual Time 6:18 AM CST 5:54 PM CST
Civil Twilight 5:55 AM CST 6:17 PM CST
Nautical Twilight 5:29 AM CST 6:44 PM CST
Astronomical Twilight 5:02 AM CST 7:10 PM CST
Moon 7:21 PM CST (2/27) 6:47 AM CST (2/27)
Length of Visible Light 12h 22m
Length of Day
11h 36m
Full, 98% of the Moon is Illuminated
Feb 27
Full
Mar 5
Last Quarter
Mar 12
New
Mar 20
First Quarter
Mar 27
Full

Hourly Weather History & Observations

Time (CST) Temp. Dew Point Humidity Pressure Visibility Wind Dir Wind Speed Gust Speed Precip Events Conditions
12:00 AM 71.6 °F 62.6 °F 73% 29.98 in 5.0 mi Variable 2.3 mph - N/A Rain Light Rain
1:00 AM 69.8 °F 62.6 °F 78% 29.98 in 3.7 mi WNW 5.8 mph - N/A Rain Light Rain
2:00 AM 68.0 °F 64.4 °F 88% 29.98 in 1.6 mi WNW 5.8 mph - N/A Rain Light Rain
3:00 AM 68.0 °F 64.4 °F 88% 29.95 in 1.6 mi Calm Calm - N/A Rain Light Rain
4:00 AM 68.0 °F 64.4 °F 88% 29.95 in 1.9 mi WNW 3.5 mph - N/A Rain Light Rain
5:00 AM 68.0 °F 64.4 °F 88% 29.95 in 2.5 mi SW 2.3 mph - N/A Rain Light Rain
6:00 AM 68.0 °F 64.4 °F 88% 29.95 in 2.5 mi South 2.3 mph - N/A Rain Light Rain
6:30 AM 68.0 °F 66.2 °F 94% 29.98 in 2.2 mi NNW 2.3 mph - N/A   Light Drizzle
7:00 AM 66.2 °F 64.4 °F 94% 29.98 in 1.4 mi West 5.8 mph - N/A Rain Light Rain
7:30 AM 66.2 °F 64.4 °F 94% 29.98 in 1.1 mi WSW 4.6 mph - N/A Rain Light Rain
8:00 AM 64.4 °F 62.6 °F 94% 30.01 in 1.9 mi ESE 11.5 mph - N/A Rain Light Rain
8:30 AM 64.4 °F 62.6 °F 94% 30.01 in 2.5 mi East 11.5 mph - N/A Rain Light Rain
9:00 AM 66.2 °F 62.6 °F 88% 30.01 in 3.1 mi East 12.7 mph - N/A Rain Light Rain
9:30 AM 66.2 °F 62.6 °F 88% 30.01 in 4.3 mi East 9.2 mph - N/A Rain Light Rain
10:00 AM 66.2 °F 62.6 °F 88% 30.01 in 5.0 mi ESE 10.4 mph - N/A Rain Light Rain
10:30 AM 66.2 °F 64.4 °F 94% 30.01 in 3.7 mi East 5.8 mph - N/A Rain Light Rain
11:00 AM 66.2 °F 64.4 °F 94% 30.01 in 4.3 mi East 5.8 mph - N/A Rain Light Rain
11:30 AM 66.2 °F 64.4 °F 94% 29.98 in 5.0 mi East 5.8 mph - N/A   Overcast
12:00 PM 66.2 °F 64.4 °F 94% 29.98 in 1.6 mi East 3.5 mph - N/A Rain Rain
12:30 PM 66.2 °F 64.4 °F 94% 29.98 in 2.8 mi Variable 2.3 mph - N/A Rain Light Rain
1:00 PM 66.2 °F 64.4 °F 94% 29.98 in 1.1 mi Variable 5.8 mph - N/A Rain Heavy Rain
1:30 PM 66.2 °F 64.4 °F 94% 29.98 in 1.9 mi Variable 1.2 mph - N/A Rain Light Rain
2:00 PM 66.2 °F 64.4 °F 94% 29.95 in - SSE 5.8 mph - N/A Rain Light Rain
2:30 PM 66.2 °F 64.4 °F 94% 29.98 in 2.8 mi SE 5.8 mph - N/A Rain Light Rain
3:00 PM 66.2 °F 64.4 °F 94% 29.95 in 2.2 mi Variable 2.3 mph - N/A Rain Rain
3:30 PM 66.2 °F 64.4 °F 94% 29.95 in 3.7 mi Variable 1.2 mph - N/A Rain Light Rain
4:00 PM 66.2 °F 64.4 °F 94% 29.95 in 3.7 mi ESE 4.6 mph - N/A Rain Light Rain
4:30 PM 66.2 °F 62.6 °F 88% 29.95 in 4.3 mi South 4.6 mph - N/A Rain Light Rain
5:00 PM 64.4 °F 62.6 °F 94% 29.95 in 5.6 mi West 4.6 mph - N/A   Overcast
5:30 PM 66.2 °F 62.6 °F 88% 29.98 in 6.2 mi West 3.5 mph - N/A   Mostly Cloudy
6:00 PM 64.4 °F 60.8 °F 88% 29.98 in 6.2 mi ESE 8.1 mph - N/A   Mostly Cloudy
6:30 PM 64.4 °F 60.8 °F 88% 29.98 in 6.2 mi ESE 11.5 mph - N/A   Mostly Cloudy
7:00 PM 64.4 °F 60.8 °F 88% 29.98 in 6.2 mi East 10.4 mph - N/A   Mostly Cloudy
7:30 PM 64.4 °F 60.8 °F 88% 29.98 in 6.2 mi East 9.2 mph - N/A   Mostly Cloudy
8:00 PM 64.4 °F 60.8 °F 88% 29.98 in 6.2 mi East 8.1 mph - N/A   Mostly Cloudy
8:30 PM 64.4 °F 60.8 °F 88% 29.98 in 6.2 mi East 8.1 mph - N/A   Mostly Cloudy
9:00 PM 64.4 °F 60.8 °F 88% 29.98 in 6.2 mi ESE 8.1 mph - N/A   Mostly Cloudy
9:30 PM 64.4 °F 60.8 °F 88% 29.98 in 6.2 mi ESE 9.2 mph - N/A   Mostly Cloudy
10:00 PM 64.4 °F 60.8 °F 88% 29.98 in 5.0 mi ESE 9.2 mph - N/A   Mostly Cloudy
10:30 PM 64.4 °F 60.8 °F 88% 29.98 in 4.3 mi ESE 10.4 mph - N/A   Mostly Cloudy
11:00 PM 64.4 °F 62.6 °F 94% 29.98 in 3.7 mi ESE 10.4 mph - N/A   Mostly Cloudy
11:30 PM 64.4 °F 60.8 °F 88% 29.98 in 5.6 mi East 11.5 mph - N/A   Mostly Cloudy